This is the latest recevied weather packets stored in our database for station/object NE1CU. If no packets are shown the sender has not sent any weather packets the latest 10 day(s).
| Time | Temp. | Humidity | Pressure | Rain* | Wind** | Luminosity | Snow |
|---|---|---|---|---|---|---|---|
| 1778140683 | 10° C | 91% | 1008.7 hPa | 1.27 mm | - | 0 W/m² | - |
| 1778140380 | 10° C | 91% | 1008.9 hPa | 1.78 mm | - | 0 W/m² | - |
| 1778140076 | 10° C | 91% | 1008.3 hPa | 1.78 mm | - | 0 W/m² | - |
| 1778139775 | 10° C | 92% | 1008.4 hPa | 0 mm | - | 0 W/m² | - |
| 1778139471 | 10° C | 92% | 1008.3 hPa | 0 mm | - | 0 W/m² | - |
| 1778139168 | 10° C | 92% | 1008.4 hPa | 1.78 mm | - | 0 W/m² | - |
| 1778138866 | 10.56° C | 92% | 1008.5 hPa | 1.78 mm | - | 0 W/m² | - |
| 1778138563 | 10.56° C | 92% | 1008.7 hPa | 1.27 mm | - | 0 W/m² | - |
| 1778138260 | 10.56° C | 91% | 1008.7 hPa | 1.27 mm | - | 0 W/m² | - |
| 1778137956 | 10.56° C | 91% | 1008.7 hPa | 1.78 mm | - | 0 W/m² | - |
| 1778137654 | 10.56° C | 91% | 1008.5 hPa | 0 mm | - | 0 W/m² | - |
| 1778137350 | 10.56° C | 91% | 1008.5 hPa | 0 mm | - | 0 W/m² | - |
| 1778137047 | 10.56° C | 91% | 1008.4 hPa | 1.27 mm | - | 0 W/m² | - |
| 1778136744 | 10.56° C | 90% | 1008.3 hPa | 1.27 mm | - | 0 W/m² | - |
| 1778136441 | 10.56° C | 90% | 1008.2 hPa | 1.78 mm | - | 0 W/m² | - |
| 1778136141 | 10.56° C | 90% | 1008.4 hPa | 1.78 mm | - | 0 W/m² | - |
| 1778135837 | 10.56° C | 89% | 1008.5 hPa | 4.32 mm | - | 0 W/m² | - |
| 1778135534 | 10.56° C | 89% | 1008.6 hPa | 7.11 mm | - | 0 W/m² | - |
| 1778135230 | 11.11° C | 87% | 1007.9 hPa | 8.89 mm | - | 0 W/m² | - |
| 1778134928 | 11.67° C | 86% | 1008.4 hPa | 7.87 mm | - | 0 W/m² | - |
| 1778134626 | 11.67° C | 83% | 1008.6 hPa | 3.56 mm | - | 0 W/m² | - |
| 1778134324 | 11.67° C | 83% | 1007.9 hPa | 1.27 mm | - | 0 W/m² | - |
| 1778134022 | 12.22° C | 81% | 1007.3 hPa | 1.27 mm | - | 0 W/m² | - |
| 1778133718 | 12.22° C | 80% | 1007.5 hPa | 0 mm | - | 0 W/m² | - |
| 1778133414 | 12.22° C | 80% | 1007.7 hPa | 0 mm | - | 0 W/m² | - |
* Rain latest hour (hover to see other rain measurements)
** Current wind speed in m/s (hover to see current wind gust speed)